Flag for Germany Weather past 2 weeks in Lüneburg, Lower Saxony, Germany

Now
54 °F

Light rain. Passing clouds.


Feels Like: 50 °F
Forecast: 47 / 56 °F
Wind: 12 mph from West

Location: Fassberg

Current Time: Oct 20, 2014 at 11:24:07 PM

Latest Report: Oct 20, 2014 at 10:20 PM


Visibility: N/A

Pressure: 29.89 "Hg

Humidity: 88%

Dew point: 50 °F

Location of LüneburgLocation

Historic Weather in Lüneburg — Graph

°F

Lüneburg temperature yesterday

Maximum temperature yesterday: 73 °F (at 3:20 PM)
Minimum temperature yesterday: 54 °F (at 6:20 AM)
Average temperature yesterday: 63 °F

Past Weeks' High & Low Weather Summary

 TemperatureHumidityPressure
High73 °F (Oct 19, 3:20 PM)100% (Oct 6, 2:20 AM)30.15 "Hg (Oct 6, 2:20 AM)
Low45 °F (Oct 6, 12:20 AM)49% (Oct 14, 3:20 PM)29.56 "Hg (Oct 7, 3:20 PM)
Average56 °F87%29.84 "Hg
* Reported Oct 5 9:20 PM — Oct 20 9:20 PM, Lüneburg, Weather by CustomWeather, © 2014

Note: Actual official high and low records may vary slightly from our data, if they occured in-between our weather recording intervals... More about our weather records

Advertising

Lüneburg weather history for previous 24 hours

 ConditionsComfort  
Time TempWeatherWind HumidityBarometerVisibility
9:20 PM
Oct 20
55 °FLight rain. Partly cloudy.9 mph88%29.89 "HgN/A
8:20 PM55 °FPartly cloudy.8 mph82%29.89 "HgN/A
7:20 PM55 °FPartly cloudy.9 mph82%29.89 "HgN/A
6:20 PM57 °FBroken clouds.10 mph82%29.89 "HgN/A
5:20 PM57 °FBroken clouds.8 mph77%29.89 "HgN/A
5:00 PM59 °FBroken clouds.10 mph68%29.89 "HgN/A
4:20 PM59 °FBroken clouds.9 mph72%29.89 "HgN/A
3:20 PM61 °FBroken clouds.13 mph68%29.89 "HgN/A
2:20 PM61 °FScattered clouds.15 mph68%29.89 "HgN/A
1:20 PM59 °FSprinkles. Partly sunny.13 mph77%29.89 "HgN/A
12:20 PM57 °FPartly sunny.12 mph88%29.92 "HgN/A
11:20 AM57 °FSprinkles. Partly sunny.15 mph82%29.92 "HgN/A
10:20 AM57 °FPartly sunny.16 mph82%29.89 "HgN/A
9:20 AM57 °FSprinkles. Partly sunny.14 mph82%29.89 "HgN/A
8:20 AM57 °FPassing clouds.17 mph82%29.89 "HgN/A
7:20 AM57 °FPassing clouds.16 mph82%29.86 "HgN/A
5:20 AM57 °FPassing clouds.17 mph82%29.86 "HgN/A
4:20 AM57 °FPassing clouds.14 mph82%29.89 "HgN/A
3:20 AM55 °FPassing clouds.14 mph88%29.89 "HgN/A
2:20 AM57 °FPassing clouds.12 mph82%29.89 "HgN/A
1:20 AM57 °FPassing clouds.9 mph82%29.89 "HgN/A
12:20 AM57 °FPassing clouds.9 mph88%29.89 "HgN/A
11:20 PM
Oct 19
59 °FPassing clouds.8 mph82%29.89 "HgN/A
Weather by CustomWeather, © 2014

See weather overviewHow to use our weather pages